Location: Fort Wayne
(41.1310°N, 85.1290°W)
Time: 08:29:06
(UTC-04:00)

OPAL - Visible Passes

Search period start: 30 May 2015 00:00
Search period end: 09 June 2015 00:00
Orbit: 744 x 795 km, 100.2° (Epoch: 30 May)

Date Brightness Start Highest point End Pass type
(mag) Time Alt. Az. Time Alt. Az. Time Alt. Az.
30 May 8.3 22:28:51 10° N 22:33:55 55° WNW 22:38:54 10° SW visible
31 May 7.5 21:53:26 10° NNE 21:58:37 70° ESE 22:03:43 10° S visible
31 May 10.3 23:33:48 10° NNW 23:36:59 16° WNW 23:39:57 10° W visible
01 Jun 9.3 22:57:23 10° N 23:01:58 32° WNW 23:06:26 10° SW visible
02 Jun 7.9 22:21:39 10° N 22:26:49 67° WNW 22:31:51 10° SSW visible
03 Jun 7.6 21:46:22 10° NNE 21:51:27 57° ESE 21:56:27 10° S visible
03 Jun 10.1 23:26:17 10° NNW 23:29:56 19° WNW 23:33:24 10° WSW visible
04 Jun 9.0 22:50:06 10° N 22:54:53 38° WNW 22:59:32 10° SW visible
05 Jun 7.6 22:14:28 10° NNE 22:19:40 82° WNW 22:24:45 10° SSW visible
05 Jun 10.5 23:56:06 10° NW 23:57:48 11° WNW 23:59:13 10° WNW visible
06 Jun 7.8 21:39:18 10° NNE 21:44:15 46° E 21:49:07 10° S visible
06 Jun 9.9 23:18:51 10° NNW 23:22:52 23° WNW 23:26:44 10° WSW visible
07 Jun 8.6 22:42:50 10° N 22:47:47 46° WNW 22:52:35 10° SW visible
08 Jun 7.5 22:07:20 10° NNE 22:12:31 82° ESE 22:17:35 10° SSW visible
08 Jun 10.4 23:48:10 10° NNW 23:50:47 14° WNW 23:53:08 10° W visible
